KLM777 EHAM-TNCM

Flight info

Callsign KLM777
Flight time N/A
Altitude 36000
Route IDRID L980 LOGAN DCT SAM DCT LORKU/N0482F350 DCT COQUE DCT RIVAK/M083F370 UN460 SIVIR DCT BERUX/N0481F370 DCT KOPAS/M083F360 DCT 4030N02000W/M083F380 37N030W 3330N04000W 30N050W/M083F400 26N055W DCT RKDIA DCT OBIKE L335 TRNKY
Aircraft A333/H-SDE3GHIJ2J3J5M1RVWXY/LB2D1

Departure

Time 2026-05-04 23:58
Airport Amsterdam Airport Schiphol (EHAM)

Arrival

Time N/A
Airport Princess Juliana International Airport (TNCM)
Time Latitude Longitude Altitude Speed Heading
2026-05-04 23:21 52.31354 4.75586 3 ft 0 kts 86°
2026-05-04 23:46 52.31354 4.75582 2 ft 3 kts 87°
2026-05-04 23:46 52.31354 4.75539 2 ft 4 kts 96°
2026-05-04 23:46 52.31357 4.75495 4 ft 4 kts 90°
2026-05-04 23:46 52.31352 4.75461 4 ft 2 kts 42°
2026-05-04 23:47 52.31334 4.75450 5 ft 3 kts 356°
2026-05-04 23:47 52.31312 4.75452 4 ft 4 kts 357°
2026-05-04 23:47 52.31285 4.75454 3 ft 3 kts 357°
2026-05-04 23:47 52.31282 4.75454 4 ft 1 kts 356°
2026-05-04 23:51 52.31284 4.75454 3 ft 1 kts 356°
2026-05-04 23:52 52.31299 4.75453 2 ft 3 kts 356°
2026-05-04 23:52 52.31324 4.75450 4 ft 4 kts 356°
2026-05-04 23:52 52.31361 4.75447 5 ft 6 kts 357°
2026-05-04 23:52 52.31408 4.75443 3 ft 7 kts 357°
2026-05-04 23:53 52.31466 4.75438 3 ft 9 kts 353°
2026-05-04 23:53 52.31506 4.75363 2 ft 11 kts 281°
2026-05-04 23:53 52.31504 4.75228 2 ft 13 kts 267°
2026-05-04 23:53 52.31499 4.75092 2 ft 0 kts 266°
2026-05-04 23:54 52.31499 4.75091 2 ft 1 kts 266°
2026-05-04 23:54 52.31498 4.75067 3 ft 3 kts 267°
2026-05-04 23:54 52.31497 4.75015 3 ft 5 kts 267°
2026-05-04 23:55 52.31495 4.74955 3 ft 5 kts 267°
2026-05-04 23:55 52.31493 4.74893 3 ft 6 kts 267°
2026-05-04 23:55 52.31489 4.74779 3 ft 0 kts 267°
2026-05-04 23:56 52.31489 4.74776 3 ft 0 kts 267°
2026-05-04 23:56 52.31489 4.74766 3 ft 3 kts 267°
2026-05-04 23:56 52.31500 4.74688 3 ft 7 kts 308°
2026-05-04 23:57 52.31545 4.74666 4 ft 9 kts 353°
2026-05-04 23:57 52.31634 4.74659 3 ft 15 kts
2026-05-04 23:57 52.31665 4.74711 3 ft 5 kts 85°
2026-05-04 23:57 52.31667 4.74805 3 ft 31 kts 88°
2026-05-04 23:58 52.31691 4.75489 0 ft 89 kts 86°
2026-05-04 23:58 52.31735 4.76777 2 ft 137 kts 87°
2026-05-04 23:58 52.31773 4.78562 205 ft 163 kts 89°
2026-05-04 23:58 52.31809 4.80428 762 ft 164 kts 86°
2026-05-04 23:59 52.32188 4.82077 1299 ft 163 kts 44°
2026-05-04 23:59 52.33296 4.82705 1380 ft 186 kts
2026-05-04 23:59 52.34600 4.82116 1599 ft 203 kts 343°
2026-05-04 23:59 52.35932 4.81183 1935 ft 214 kts 342°
2026-05-05 00:00 52.37365 4.80178 2266 ft 227 kts 341°
2026-05-05 00:00 52.37839 4.79847 2398 ft 230 kts 340°
2026-05-05 00:00 52.40073 4.77170 3139 ft 248 kts 319°
2026-05-05 00:00 52.41284 4.75171 3712 ft 252 kts 314°
2026-05-05 00:01 52.42477 4.73093 4450 ft 250 kts 313°
2026-05-05 00:01 52.43698 4.71003 5064 ft 256 kts 313°
2026-05-05 00:01 52.44944 4.68909 5788 ft 256 kts 313°
2026-05-05 00:01 52.46077 4.66667 6492 ft 258 kts 303°
2026-05-05 00:02 52.46908 4.64034 7055 ft 263 kts 287°
2026-05-05 00:02 52.47151 4.61067 7710 ft 265 kts 264°
2026-05-05 00:02 52.46670 4.58147 8375 ft 269 kts 248°
2026-05-05 00:02 52.45801 4.55411 9046 ft 273 kts 239°
2026-05-05 00:03 52.44731 4.52817 9760 ft 275 kts 234°
2026-05-05 00:03 52.43572 4.50288 10275 ft 283 kts 233°
2026-05-05 00:03 52.42336 4.47648 10525 ft 300 kts 233°
2026-05-05 00:03 52.41044 4.44847 10760 ft 317 kts 233°